Location: Brede
(50.9167°N, 0.6000°E)
Time: 03:29:49
(UTC+00:00)

SL-16 R/B - Pass Details

Date: 08 August 2020
Orbit: 841 x 849 km, 71.0° (Epoch: 27 September)

Event Time Altitude Azimuth Distance (km) Brightness Sun altitude
Rises 03:28:15 0° 319° (NW) 3,423 5.4 -9.5°
Reaches altitude 10° 03:31:27 10° 302° (WNW) 2,482 4.5 -9.1°
Maximum altitude 03:35:08 18° 261° (W) 1,967 3.6 -8.7°
Drops below altitude 10° 03:38:49 10° 220° (SW) 2,469 4.0 -8.2°
Enters shadow 03:39:08 - 218° (SW) 2,547 4.1 -8.2°
